星链-32260 (STARLINK-32260)

导读

STARLINK-32260是美国太空探索技术公司(SpaceX)星链星座中的一颗低轨通信卫星,于2024年10月15日发射升空。它属于星链网络扩容任务的一部分,依托星链成熟的卫星通信技术,旨在为全球尤其是偏远地区提供高速、低延迟的宽带互联网服务,支撑远程办公、在线娱乐等多场景联网需求,是SpaceX持续完善近地轨道卫星互联网布局的重要节点。

基本信息
目录编号:
61522
目录名称:
STARLINK-32260
国际标识:
2024-183P
轨道中心:
EARTH
卫星名称:
星链-32260
卫星全名:
星链-32260 (STARLINK-32260)
卫星状态:
在轨 (已飞行610 天)
发射日期:
2024-10-15 UTC
国别 :
美国 (US)
星等 :
--
轨道信息
数据来源 国际轨道数据
星历时间: 2026-06-17T22:03:56+0800
8小时前
查看轨道信息
半长轴: 6847.244km
偏心率: 0.0001047
轨道倾角: 53.158°
近地点辐角 178.932°
升交点赤经 37.957°
平近点角 181.169°
近地点: 468.39km
远地点: 469.824km
周期: 93.980分钟
每日圈数: 15.322483
详细信息
固有亮度:
5
最大亮度:
2.5
卫星平台:
Starlink V1.0
覆盖范围:
全球
运营商:
太空探索技术公司
运营商所在国:
美国
制造商(研发单位):
太空探索技术公司
制造商所在国:
美国
使用方式:
暂无
卫星简介
Starlink 计划是 SpaceX 推出的全球卫星互联网项目,通过发射低轨道卫星,为全球尤其是偏远地区提供高速、低延迟的互联网服务。自 2019 年起,Starlink 已部署数千颗卫星,旨在缩小全球数字鸿沟,推动互联网普及。该项目还为军事、航空等行业提供通信支持,带来广泛经济效益。
2D轨道图
3D轨道图
轨道高度分析图
轨道倾角分析图
轨道综合分析图
查看轨道综合分析图